Weather History for Gallivare, Sweden

Change the Weather History Date:

Wednesday, February 6, 2013

  Actual Average Record
Temperature  
Mean Temperature 3 °F -  
Max Temperature 15 °F - - ()
Min Temperature -9 °F - - ()
Degree Days  
Heating Degree Days 62    
Moisture  
Dew Point 4 °F    
Average Humidity 89    
Maximum Humidity 93    
Minimum Humidity 77    
Precipitation  
Precipitation 0.00 in - - ()
Sea Level Pressure  
Sea Level Pressure 29.68 in    
Wind  
Wind Speed 3 mph ()    
Max Wind Speed 8 mph    
Max Gust Speed -    
Visibility 4.9 miles    
Events Fog , Snow    
T = Trace of Precipitation, MM = Missing Value Source: Averaged Metar Reports

Daily Weather History Graph

Daily Weather History Graph

Search for Another Location

Airport:

Trip Planner

Search our weather history database for the weather conditions in past years. The results will help you decide how hot, cold, wet, or windy it might be!

Date:

Astronomy

Feb. 06, 2013 Rise Set
Actual Time 8:24 AM CET 3:18 PM CET
Civil Twilight 7:20 AM CET 4:22 PM CET
Nautical Twilight 6:14 AM CET 5:28 PM CET
Astronomical Twilight 5:12 AM CET 6:30 PM CET
Moon 6:14 AM CET (2/6) 9:53 AM CET (2/6)
Length of Visible Light 9h 02m
Length of Day
6h 54m
Waning Crescent, 19% of the Moon is Illuminated
Feb 6
Waning Crescent
Feb 10
New
Feb 17
First Quarter
Feb 25
Full
Mar 4
Last Quarter

Hourly Weather History & Observations

Time (CET) Temp. Windchill Dew Point Humidity Pressure Visibility Wind Dir Wind Speed Gust Speed Precip Events Conditions
12:20 AM 15.8 °F 10.2 °F 14.0 °F 93% 29.53 in 1.7 mi East 3.5 mph - N/A Snow Light Snow
12:50 AM 15.8 °F 10.2 °F 14.0 °F 93% 29.53 in - East 3.5 mph - N/A Snow Light Snow
1:20 AM 15.8 °F 8.6 °F 14.0 °F 93% 29.53 in 2.5 mi ESE 4.6 mph - N/A Snow Light Snow
1:50 AM 15.8 °F 8.6 °F 14.0 °F 93% 29.53 in 3.1 mi East 4.6 mph - N/A Snow Light Snow
2:20 AM 15.8 °F 7.2 °F 14.0 °F 93% 29.56 in 6.2 mi East 5.8 mph - N/A Snow Light Snow
2:50 AM 15.8 °F 7.2 °F 14.0 °F 93% 29.56 in 5.0 mi East 5.8 mph - N/A Snow Light Snow
3:20 AM 15.8 °F 8.6 °F 14.0 °F 93% 29.56 in 4.3 mi East 4.6 mph - N/A Snow Light Snow
3:50 AM 15.8 °F 8.6 °F 14.0 °F 93% 29.56 in 3.7 mi East 4.6 mph - N/A Snow Light Snow
4:20 AM 15.8 °F - 14.0 °F 93% 29.59 in - Variable 2.3 mph - N/A Snow Light Snow
4:50 AM 15.8 °F - 14.0 °F 93% 29.59 in 3.1 mi Variable 2.3 mph - N/A Snow Light Snow
5:20 AM 15.8 °F - 14.0 °F 93% 29.59 in 2.5 mi ESE 2.3 mph - N/A Snow Light Snow
5:50 AM 15.8 °F 8.6 °F 14.0 °F 93% 29.62 in - East 4.6 mph - N/A Snow Light Snow
6:20 AM 15.8 °F 8.6 °F 14.0 °F 93% 29.62 in 2.8 mi East 4.6 mph - N/A Snow Light Snow
6:50 AM 15.8 °F 8.6 °F 12.2 °F 86% 29.62 in - East 4.6 mph - N/A Snow Light Snow
7:20 AM 14.0 °F 8.2 °F 12.2 °F 93% 29.62 in - East 3.5 mph - N/A Snow Light Snow
7:50 AM 14.0 °F 8.2 °F 12.2 °F 93% 29.65 in 3.1 mi East 3.5 mph - N/A Snow Light Snow
8:50 AM 14.0 °F 8.2 °F 12.2 °F 93% 29.65 in 6.2 mi NNW 3.5 mph - N/A Snow Light Snow
9:20 AM 10.4 °F - 8.6 °F 92% 29.65 in 5.6 mi Calm Calm - N/A Snow Light Snow
9:50 AM 10.4 °F - 8.6 °F 92% 29.68 in - Calm Calm - N/A   Clear
10:20 AM 8.6 °F - 6.8 °F 92% 29.68 in - West 1.2 mph - N/A   Clear
10:50 AM 8.6 °F - 6.8 °F 92% 29.68 in 6.2 mi Calm Calm - N/A   Mostly Cloudy
11:20 AM 8.6 °F - 6.8 °F 92% 29.68 in 4.3 mi Calm Calm - N/A Snow Light Snow
11:50 AM 8.6 °F - 6.8 °F 92% 29.68 in 6.2 mi Calm Calm - N/A Snow Light Snow
12:20 PM 8.6 °F - 6.8 °F 92% 29.68 in - Calm Calm - N/A   Clear
12:50 PM 10.4 °F - 6.8 °F 85% 29.71 in 6.2 mi West 1.2 mph - N/A   Unknown
1:20 PM 10.4 °F - 6.8 °F 85% 29.71 in 6.2 mi Calm Calm - N/A Fog Patches of Fog
1:50 PM 6.8 °F - 3.2 °F 85% 29.71 in - Calm Calm - N/A Fog Patches of Fog
2:20 PM 5.0 °F - 1.4 °F 85% 29.71 in 6.2 mi NNW 1.2 mph - N/A   Scattered Clouds
2:50 PM 5.0 °F -2.1 °F 3.2 °F 92% 29.71 in 6.2 mi NW 3.5 mph - N/A Snow Light Snow
3:20 PM 3.2 °F -7.8 °F 1.4 °F 92% 29.71 in 5.6 mi NW 5.8 mph - N/A Snow Light Snow
3:50 PM -0.4 °F -12.0 °F -2.2 °F 92% 29.74 in 6.2 mi NW 5.8 mph - N/A   Partly Cloudy
4:20 PM 1.4 °F -8.3 °F -2.2 °F 85% 29.74 in 6.2 mi NW 4.6 mph - N/A   Partly Cloudy
5:20 PM -4.0 °F -14.6 °F -7.6 °F 85% 29.74 in - NW 4.6 mph - N/A   Clear
5:50 PM -2.2 °F -14.2 °F -5.8 °F 85% 29.77 in 5.6 mi NW 5.8 mph - N/A   Ice Crystals
6:20 PM -4.0 °F -14.6 °F -7.6 °F 85% 29.77 in - WNW 4.6 mph - N/A   Clear
6:50 PM -4.0 °F -16.3 °F -7.6 °F 85% 29.77 in - WNW 5.8 mph - N/A   Clear
7:20 PM -4.0 °F -19.0 °F -7.6 °F 85% 29.77 in 5.6 mi NW 8.1 mph - N/A   Mostly Cloudy
7:50 PM -9.4 °F -22.7 °F -13.0 °F 84% 29.77 in 5.6 mi NW 5.8 mph - N/A Snow Light Snow
8:20 PM -9.4 °F -20.9 °F -13.0 °F 84% 29.77 in 5.6 mi WNW 4.6 mph - N/A   Scattered Clouds
8:50 PM -7.6 °F -18.8 °F -13.0 °F 77% 29.80 in 6.2 mi WNW 4.6 mph - N/A Snow Light Snow
9:20 PM -7.6 °F -18.8 °F -11.2 °F 84% 29.80 in 4.3 mi WNW 4.6 mph - N/A Snow Light Snow
9:50 PM -5.8 °F -18.4 °F -9.4 °F 84% 29.80 in 3.7 mi NW 5.8 mph - N/A Snow Light Snow
10:20 PM -5.8 °F -18.4 °F -9.4 °F 84% 29.80 in 3.7 mi NW 5.8 mph - N/A Snow Light Snow
10:50 PM -4.0 °F -16.3 °F -9.4 °F 78% 29.80 in 6.2 mi NW 5.8 mph - N/A Snow Light Snow
11:20 PM -4.0 °F -16.3 °F -7.6 °F 85% 29.80 in 5.0 mi NW 5.8 mph - N/A Snow Light Snow
11:50 PM -2.2 °F -14.2 °F -5.8 °F 85% 29.83 in 4.3 mi NW 5.8 mph - N/A Snow Light Snow